Location: Launay
(47.2429°N, 1.5727°E)
Time: 20:06:07
(UTC+00:00)

Cosmos 1315 Rocket - Pass Details

Date: 19 May 2025
Orbit: 498 x 525 km, 81.2° (Epoch: 23 June)

Event Time Altitude Azimuth Distance (km) Brightness Sun altitude
Exits shadow 20:56:12 19° 124° (SE) 1,314 4.1 -12.2°
Maximum altitude 20:57:43 23° 91° (E) 1,139 4.1 -12.4°
Drops below altitude 10° 21:00:51 10° 37° (NE) 1,774 5.6 -12.8°
Sets 21:03:17 0° 24° (NNE) 2,665 6.7 -13.0°
